Weather observations for the past three days for
Jackson, McKellar-Sipes Regional Airport
Imperial (Metric)
Date Time (cdt) Wind (mph) Vis. (mi.) Weather Sky Cond. Temperature (ºF) Relative Humidity Wind Chill (°F) Heat Index (°F) Pressure Precipitation (in)
Air Dwpt 6 hour altimeter (in) sea level (mb) 1 hr 3 hr 6 hr
Max. Min.
25 02:53 Calm 10.00 Fair CLR 72 69.1 91% 29.94 1013.3
25 01:53 Calm 10.00 Fair CLR 75 69.1 82% 75 29.94 1013.3
25 00:53 Calm 10.00 Fair CLR 73 70 91 73 90% 29.95 1013.5
24 23:53 Calm 10.00 Fair CLR 75 70 84% 75 29.95 1013.7
24 22:53 Calm 10.00 Fair CLR 75.9 71.1 85% 76 29.95 1013.5
24 21:53 Calm 10.00 Fair CLR 78.1 72 82% 80 29.94 1013.4
24 20:53 Calm 10.00 Fair CLR 80.1 73 79% 84 29.93 1013.1
24 19:53 SE 3 10.00 Fair CLR 84.9 75 72% 93 29.93 1013.0
24 18:53 E 3 10.00 Fair CLR 91 73 95 91 56% 100 29.93 1012.8
24 17:53 Calm 10.00 Fair CLR 93.9 69.1 44% 99 29.93 1013.0
24 16:53 S 5 10.00 Fair CLR 93.9 70 46% 100 29.94 1013.2
24 15:53 E 3 10.00 Fair CLR 93.9 69.1 44% 99 29.95 1013.6
24 14:53 E 3 10.00 Fair CLR 93 70 47% 99 29.97 1014.2
24 13:53 NE 3 10.00 Fair CLR 93.9 70 46% 100 29.98 1014.5
24 12:53 Vrbl 3 10.00 Fair CLR 91.9 70 91.9 75 49% 98 29.99 1015.0
24 11:53 E 5 10.00 Fair CLR 91 70 50% 97 29.99 1015.0
24 10:53 E 3 10.00 Fair CLR 89.1 70 53% 94 29.99 1015.0
24 09:53 E 7 10.00 Fair CLR 88 71.1 57% 94 29.98 1014.6
24 08:53 E 6 10.00 Fair CLR 86 73 65% 93 29.97 1014.4
24 07:53 NE 3 10.00 Fair CLR 81 75 82% 87 29.97 1014.2
24 06:53 Calm 8.00 Fair CLR 75 72 75.9 71.1 90% 74 29.96 1014.0
24 05:53 Calm 1.75 Fog/Mist FEW002 71.1 69.1 94% 29.95 1013.6
24 04:53 Calm 4.00 Fog/Mist CLR 73 70 90% 29.93 1013.0
24 03:53 Calm 9.00 Fair CLR 73.9 71.1 91% 29.92 1012.5
24 02:53 Calm 5.00 Fog/Mist CLR 73.9 72 94% 29.91 1012.3
24 01:53 SW 3 8.00 Fair CLR 75.9 73.9 94% 75 29.92 1012.5
24 00:53 Calm 8.00 Fair CLR 75.9 73.9 90 75.9 94% 75 29.92 1012.5
23 23:53 Calm 10.00 Fair CLR 79 75 88% 83 29.91 1012.3
23 22:53 Calm 10.00 Fair CLR 80.1 75 85% 85 29.9 1012.0
23 21:53 W 6 10.00 A Few Clouds FEW047 FEW065 82.9 75 77% 90 29.88 1011.1
23 20:53 SW 7 10.00 Fair CLR 84 75.9 77% 93 29.86 1010.6
23 19:53 SW 6 10.00 Fair CLR 87.1 75.9 70% 98 29.86 1010.6
23 18:53 W 8 10.00 Fair CLR 90 75.9 91.9 84 63% 102 29.86 1010.5
23 17:53 W 14 10.00 Fair CLR 90 75.9 63% 102 29.86 1010.7
23 16:53 W 12 10.00 Partly Cloudy SCT065 90 75.9 63% 102 29.87 1011.1
23 15:53 NW 8 10.00 Partly Cloudy FEW041 SCT085 84.9 78.1 80% 97 29.88 1011.4
23 14:53 W 14 G 22 10.00 Mostly Cloudy FEW040 BKN090 89.1 73.9 61% 98 29.89 1011.6
23 13:53 W 10 10.00 Mostly Cloudy FEW055 FEW070 BKN100 90 73.9 59% 99 29.9 1012.1
23 12:53 W 12 10.00 Fair CLR 89.1 75 90 78.1 63% 99 29.91 1012.4
23 11:53 SW 12 10.00 Overcast BKN070 BKN090 OVC100 87.1 73 63% 95 29.93 1013.1
23 10:53 SW 14 10.00 Mostly Cloudy SCT070 BKN100 89.1 73.9 61% 98 29.94 1013.1
23 09:53 W 13 10.00 Mostly Cloudy BKN095 BKN120 87.1 73 63% 95 29.94 1013.2
23 08:53 SW 14 G 18 10.00 Fair CLR 84.9 71.1 63% 90 29.94 1013.5
23 07:53 SW 9 10.00 A Few Clouds FEW110 81 69.1 67% 84 29.94 1013.4
23 06:53 SW 6 10.00 Fair CLR 78.1 68 78.1 73.9 71% 80 29.94 1013.1
23 05:53 SW 7 10.00 Fair CLR 75 66.9 76% 76 29.93 1012.9
23 04:53 SW 8 10.00 Fair CLR 75 66.9 76% 76 29.93 1013.0
23 03:53 S 8 10.00 Fair CLR 75 66.9 76% 76 29.94 1013.1
23 02:53 S 7 10.00 Fair CLR 75 68 79% 76 29.94 1013.2
23 01:53 S 7 10.00 Fair CLR 75.9 68 77% 77 29.95 1013.6
23 00:53 S 5 10.00 Fair CLR 75 70 90 75 84% 75 29.96 1014.0
22 23:53 S 5 10.00 Fair CLR 75.9 71.1 85% 76 29.97 1014.3
22 22:53 S 5 10.00 A Few Clouds FEW080 77 71.1 82% 79 29.98 1014.6
22 21:53 S 5 10.00 Fair CLR 77 72 85% 78 29.97 1014.3
22 20:53 S 5 10.00 Fair CLR 79 72 79% 82 29.97 1014.2
22 19:53 S 5 10.00 Fair CLR 84 73 70% 90 29.97 1014.2
22 18:53 SW 6 10.00 Fair CLR 90 69.1 93.9 90 50% 95 29.98 1014.5
22 17:53 SW 6 10.00 Fair CLR 91 70 50% 97 29.98 1014.5
22 16:53 W 8 10.00 Fair CLR 91 69.1 49% 96 29.99 1015.1
22 15:53 SW 10 10.00 Fair CLR 91.9 69.1 47% 97 30 1015.3
22 14:53 S 9 10.00 Fair CLR 93.9 68 43% 98 30.02 1016.0
22 13:53 SW 8 10.00 Partly Cloudy FEW050 SCT080 93 69.1 46% 98 30.04 1016.8
22 12:53 W 7 10.00 A Few Clouds FEW060 91.9 70 91.9 73.9 49% 98 30.06 1017.5
22 11:53 SW 7 10.00 A Few Clouds FEW050 91.9 71.1 51% 99 30.08 1018.1
22 10:53 SW 10 10.00 Fair CLR 90 71.1 54% 96 30.09 1018.4
22 09:53 SW 6 10.00 Fair CLR 88 73 61% 96 30.1 1018.8
22 08:53 S 6 10.00 Fair CLR 86 73 65% 93 30.11 1019.1
22 07:53 Calm 10.00 Fair CLR 80.1 72 76% 84 30.11 1019.1
22 06:53 Calm 10.00 Fair CLR 73.9 70 73.9 70 88% 30.12 1019.3
22 05:53 Calm 8.00 Fair CLR 70 68 93% 30.12 1019.3
22 04:53 Calm 10.00 Fair CLR 71.1 68 90% 30.12 1019.2
22 03:53 Calm 10.00 Fair CLR 72 69.1 91% 30.11 1019.2
Date Time (cdt) Wind (mph) Vis. (mi.) Weather Sky Cond. Air Dwpt Max. Min. Relative Humidity Wind Chill (°F) Heat Index (°F) altimeter (in) sea level (mb) 1 hr 3 hr 6 hr
6 hour
Temperature (ºF) Pressure Precipitation (in)